Temperature
16 16 16 17 14 11 13 13 13 13 13 14 14 14 13 13 14 14 13 13 13 13 13 13 13 13 13 13 13 13 13 13 13 13 13 13 13 13 14 14 14 14 14 14 14 14 14 14 14
15 16 16 16 12 13 13 12 13 13 13 14 14 13 13 12 13 13 13 13 13 13 13 13 12 13 13 13 13 12 12 12 13 13 13 13 13 13 13 14 14 14 14 14 14 14 14 14 14
15 15 16 11 11 12 14 13 12 13 13 13 13 13 12 12 12 12 12 12 13 13 13 13 12 12 12 12 12 12 12 12 12 13 13 13 13 13 13 13 13 13 13 13 14 14 14 14 14
15 15 14 11 12 11 12 12 12 12 13 13 12 11 12 12 12 12 12 12 12 12 12 12 12 12 12 12 12 12 12 12 12 12 12 12 13 13 13 13 13 13 13 13 13 13 13 14 14
15 14 11 10 11 11 11 12 12 12 12 12 12 11 11 12 12 12 12 12 12 12 12 12 12 12 12 12 12 12 12 12 12 12 12 12 12 12 12 12 13 13 13 13 13 13 13 13 13
14 11 10 11 11 11 11 12 12 11 11 12 11 10 11 11 12 12 12 12 12 12 12 11 11 11 12 11 11 11 11 11 12 12 12 12 12 12 12 12 12 13 13 13 13 13 13 13 13
12 9 10 11 10 11 11 12 11 10 10 11 12 10 11 11 11 11 11 11 11 11 11 11 11 11 11 11 11 11 11 11 11 11 12 12 12 12 12 12 12 12 12 12 12 12 12 12 13
13 9 10 10 10 11 11 11 11 11 11 11 12 10 11 11 11 11 11 11 11 11 11 11 11 11 11 11 11 11 11 11 11 11 11 11 12 12 12 12 12 12 12 12 12 12 12 12 12
12 9 9 10 10 11 10 10 11 11 10 11 11 11 11 11 11 11 10 10 10 10 10 10 10 10 11 11 11 11 11 11 11 11 11 11 11 11 11 11 12 12 12 12 12 12 12 12 12
11 9 10 10 10 10 10 10 10 10 9 9 10 10 11 11 10 10 10 10 10 10 10 10 10 10 10 10 10 10 10 10 10 10 11 11 11 11 11 11 11 11 12 12 12 12 11 11 11
9 9 9 9 10 10 9 9 9 9 8 9 10 10 10 10 10 10 10 10 10 10 9 10 10 9 10 10 10 10 10 10 10 10 10 10 10 10 11 11 11 11 11 11 11 11 11 11 11
8 8 9 9 9 9 9 9 9 8 9 10 10 10 10 10 10 10 10 10 9 9 9 9 9 9 9 9 9 9 9 9 10 10 10 10 10 10 10 10 10 11 11 11 11 11 11 11 11
8 8 8 9 9 9 9 8 8 8 9 10 9 9 9 9 9 9 9 9 9 9 9 9 9 9 9 9 9 9 9 9 9 9 9 9 9 9 10 10 10 10 10 10 10 10 10 10 10
7 8 8 8 8 8 8 7 7 8 9 9 9 9 9 9 9 9 9 9 9 9 9 9 9 8 8 9 8 9 9 9 9 9 9 9 9 9 9 9 10 10 10 10 10 10 10 10 10
8 7 7 7 7 8 7 7 6 8 8 8 8 8 8 8 8 9 9 9 9 9 9 8 8 8 8 8 8 8 8 8 8 8 8 8 8 8 8 9 9 9 9 9 9 9 9 9 9
7 7 7 7 7 7 7 7 7 8 7 7 8 8 8 8 8 8 8 8 8 8 8 8 8 8 8 8 8 8 8 8 8 8 8 8 8 8 8 8 8 9 9 9 9 9 9 9 9
6 6 6 7 7 6 6 6 6 7 7 6 7 7 7 7 8 8 8 8 8 8 8 8 8 8 8 8 7 7 7 7 7 8 7 8 8 8 8 8 8 8 8 8 8 8 8 8 8
6 6 6 6 6 6 5 5 6 6 6 6 6 6 7 7 8 8 8 8 8 8 8 7 7 7 7 7 7 7 7 7 7 7 7 7 7 7 7 7 7 7 7 8 8 8 7 7 8
6 6 6 6 6 6 5 5 5 5 5 5 5 6 6 7 7 7 8 8 8 8 8 7 7 7 7 7 7 7 7 7 7 7 7 7 7 7 7 7 7 7 7 7 7 7 7 7 7
6 6 5 5 6 6 5 5 5 5 5 5 5 5 6 7 7 7 7 7 7 7 7 7 7 7 7 6 6 6 6 6 6 6 6 6 7 7 6 6 6 6 6 6 6 6 6 6 6
6 6 5 5 5 5 4 5 5 5 5 5 5 6 6 6 6 7 7 7 7 7 7 7 6 6 6 6 6 6 6 6 6 6 6 6 6 6 6 6 6 6 6 6 6 6 5 5 5
6 6 6 5 4 4 4 4 5 4 4 4 5 5 5 6 6 6 6 6 6 6 6 6 6 6 6 5 5 5 5 5 5 5 5 5 6 6 6 6 6 5 5 5 5 5 5 5 5
5 5 5 5 4 4 3 4 5 4 4 5 5 5 5 5 6 6 6 6 6 6 6 6 6 5 5 5 5 5 5 5 5 5 5 5 5 5 5 5 5 5 5 5 5 5 4 4 4
5 5 4 3 3 4 4 3 4 3 4 5 4 5 5 5 5 5 5 5 5 5 5 5 5 5 5 5 4 4 4 4 4 5 5 5 5 5 5 5 5 5 5 4 4 4 4 4 4
5 4 4 4 3 4 3 3 4 4 4 4 4 4 5 5 5 5 5 5 5 5 5 5 5 5 4 4 4 4 4 4 4 4 4 4 4 4 4 4 4 4 4 4 4 4 4 4 4
4 5 4 4 4 3 3 3 4 5 4 5 5 5 4 5 5 5 5 4 4 4 4 4 4 4 4 4 4 4 4 4 3 3 3 4 4 4 4 4 4 4 4 3 3 4 3 3 3
4 3 3 3 2 2 3 2 3 4 4 4 4 4 4 4 4 4 4 4 4 4 4 4 4 4 4 3 3 3 3 3 3 3 3 3 3 3 3 3 3 3 3 3 3 3 3 3 3
4 3 2 3 3 4 3 3 4 4 4 3 3 3 3 4 4 4 4 4 4 4 4 4 3 3 3 3 3 3 3 3 3 3 3 3 3 3 3 3 3 3 3 3 3 3 3 3 3
3 3 2 2 2 3 3 4 4 4 3 3 3 3 3 3 3 3 3 3 3 4 3 3 3 3 3 3 3 3 3 3 3 3 3 3 3 3 3 3 2 2 2 3 2 2 2 2 3
3 3 2 3 2 1 2 3 4 3 3 2 3 3 3 3 3 3 3 3 3 3 3 3 3 3 3 3 3 2 2 3 2 3 3 2 2 2 2 2 2 2 2 2 2 2 2 2 2
Wind_Speed
10 6 2 4 5 4 2 3 2 1 1 1 1 3 5 4 3 2 0 1 3 2 2 3 5 5 6 6 6 6 7 7 6 5 6 6 6 6 6 6 5 5 6 6 7 7 6 7 7
5 3 5 5 5 1 4 4 3 2 2 1 3 3 4 1 1 2 1 1 2 3 3 3 5 5 5 5 5 5 6 6 6 5 5 5 5 5 6 5 6 5 5 6 5 6 6 6 6
3 4 4 5 4 6 5 3 4 0 1 2 3 3 2 1 0 1 1 2 3 4 4 3 4 5 5 5 5 4 5 5 6 5 4 4 4 4 5 5 5 5 5 5 5 5 5 5 5
4 5 5 4 4 4 4 2 1 1 1 2 3 2 1 1 0 1 2 3 4 3 4 3 4 4 5 5 4 4 4 5 5 5 4 3 3 3 4 4 4 5 5 5 4 4 3 4 4
4 4 4 0 4 3 3 2 2 2 1 1 3 3 0 2 2 3 4 4 4 2 3 3 4 5 4 4 4 4 3 4 4 5 4 3 3 2 3 3 3 4 4 4 4 3 3 3 3
4 4 3 4 4 2 2 1 2 1 1 1 3 3 1 1 2 2 3 3 3 2 3 3 4 4 4 4 5 5 4 4 4 4 4 4 3 3 2 3 3 3 3 4 4 3 3 3 3
4 4 4 4 3 3 2 1 3 2 2 2 3 4 1 1 1 2 2 2 2 3 3 3 3 3 4 4 4 4 4 4 3 4 5 5 4 3 3 2 2 2 3 3 3 3 3 2 3
4 4 2 3 4 4 1 1 1 2 2 0 3 5 4 3 2 3 3 3 2 2 3 3 4 4 4 3 4 4 4 4 4 4 4 5 4 4 4 4 2 2 2 3 3 3 3 2 2
3 4 3 5 5 3 0 1 2 1 1 1 0 2 1 3 4 3 2 2 2 2 2 2 3 3 3 3 3 4 3 4 4 4 4 4 3 3 3 4 3 2 2 2 3 3 4 3 2
4 3 5 2 3 2 1 1 1 2 1 1 2 2 2 4 4 3 2 1 1 2 2 1 1 2 2 2 3 4 3 4 3 3 3 3 3 3 3 3 3 3 3 3 3 3 4 3 2
2 4 2 1 0 1 1 1 1 2 3 5 4 3 1 2 3 3 3 3 3 2 2 1 1 1 1 2 2 2 3 3 3 3 3 3 3 2 3 3 3 3 3 3 3 3 3 2 1
2 1 1 1 1 0 1 1 1 4 6 4 4 3 3 3 4 5 4 3 2 2 3 2 1 1 1 1 1 1 2 2 2 2 2 2 2 2 2 2 3 3 2 2 2 2 3 2 1
1 1 1 1 1 1 1 2 3 5 5 3 1 2 3 5 4 4 4 3 3 3 3 2 1 1 1 0 1 1 1 1 1 2 2 1 1 1 1 2 2 2 2 1 1 2 2 2 1
0 0 2 2 2 1 1 3 2 6 3 2 2 3 4 5 5 3 3 4 4 4 4 3 1 1 1 1 1 1 1 1 1 1 2 2 1 1 0 1 1 2 2 1 1 1 1 1 1
1 2 4 2 1 1 1 5 5 5 1 2 4 4 4 5 5 5 5 5 5 4 3 3 2 1 1 1 1 1 1 1 1 2 3 2 2 2 1 1 1 2 2 1 1 1 1 1 1
3 2 3 4 1 1 1 7 5 2 2 4 5 5 5 5 6 6 5 5 4 3 3 3 2 1 2 2 2 1 2 2 2 2 3 3 3 2 1 1 2 2 1 1 0 0 0 1 2
3 1 3 5 1 0 2 7 6 2 2 5 5 5 5 6 6 6 5 5 4 4 4 3 2 2 2 2 1 2 2 2 2 2 3 3 3 2 1 1 2 2 1 0 1 0 0 1 2
3 3 4 5 3 1 4 9 9 5 4 6 6 6 6 7 8 6 5 4 4 4 3 3 2 2 2 0 0 1 1 1 2 2 3 4 3 2 1 1 2 1 1 1 1 0 0 1 1
3 3 6 6 3 3 7 10 11 7 5 6 6 6 7 8 7 5 4 3 3 2 2 2 2 2 1 0 0 1 2 2 2 2 3 4 3 2 1 1 1 1 1 1 1 1 0 0 1
4 5 6 5 3 3 6 11 10 7 6 6 8 8 7 6 5 4 4 3 3 3 3 3 3 3 3 2 1 1 1 1 2 2 2 3 3 2 2 2 2 2 1 1 1 1 1 0 1
5 6 6 5 5 2 4 8 6 5 4 5 6 6 5 6 6 5 4 4 3 3 4 4 3 3 3 2 1 1 1 1 1 1 2 2 3 3 2 3 2 2 2 2 2 2 2 1 1
6 5 5 4 3 4 1 5 7 5 5 6 6 5 5 5 5 5 4 4 4 4 3 3 3 2 2 2 2 2 1 2 2 2 2 3 3 3 3 2 2 2 2 2 2 2 2 2 2
4 2 2 2 2 3 1 3 8 3 5 7 6 6 5 5 4 4 4 4 4 3 3 3 2 2 2 2 3 3 2 2 2 2 2 2 2 2 3 2 2 2 2 2 2 2 2 3 3
2 1 2 2 1 4 4 4 7 4 6 6 5 4 4 4 4 4 3 2 2 2 2 1 1 2 2 2 3 3 3 3 2 2 3 3 2 2 3 2 2 3 2 2 3 3 3 3 3
2 3 3 4 2 6 2 4 9 7 6 5 5 5 4 3 3 3 3 3 3 2 2 2 2 2 2 2 3 3 4 4 4 4 4 3 3 3 3 2 2 3 3 3 3 2 3 3 4
2 4 4 4 5 5 2 6 7 5 4 3 3 3 2 2 2 2 3 3 3 3 2 2 2 2 2 3 3 3 3 3 3 4 4 4 4 4 3 3 3 3 3 3 2 2 3 3 3
3 3 3 3 1 4 6 6 8 2 2 2 2 3 3 3 3 3 3 3 3 3 3 3 3 3 3 3 3 3 3 3 4 4 4 4 4 3 3 4 3 3 3 3 2 2 3 3 3
3 5 4 3 2 4 6 5 5 4 3 3 3 4 5 4 4 4 3 3 3 3 3 2 3 3 3 3 3 3 3 4 4 4 4 4 4 4 3 3 3 3 3 3 3 3 3 3 3
3 3 3 3 3 3 4 7 5 5 3 3 4 4 4 4 4 4 3 3 4 3 2 2 3 3 3 3 3 3 3 4 4 4 4 5 4 4 4 4 4 4 4 3 3 3 3 3 3
4 5 6 4 4 3 3 7 4 4 2 2 4 4 4 4 4 3 3 3 3 4 4 3 3 3 4 3 3 3 3 3 3 4 4 4 4 4 4 4 4 4 3 3 3 4 3 3 3
Wind_Direction
348 355 44 54 59 57 222 233 206 209 237 311 76 114 130 136 159 179 201 73 77 84 70 91 78 70 64 60 56 50 50 46 44 52 55 58 58 52 51 53 54 55 52 48 49 53 62 64 64
351 11 50 62 99 167 250 226 206 207 193 100 66 80 90 96 60 100 75 354 78 76 67 71 81 72 69 61 56 49 46 44 39 40 52 56 56 54 52 50 49 48 49 50 50 48 59 60 59
14 43 79 84 136 190 213 205 209 289 54 90 81 55 111 147 66 168 223 140 82 66 63 66 76 73 67 60 52 47 40 39 36 32 39 48 53 53 52 49 46 43 41 41 46 45 55 58 53
55 47 58 88 202 219 215 219 186 115 42 54 114 82 24 5 223 204 141 118 101 71 65 67 69 65 62 54 45 40 36 38 35 29 33 38 40 43 53 49 42 40 36 34 35 38 43 57 50
54 78 80 118 229 238 245 252 160 138 165 41 128 138 215 355 37 91 107 119 122 99 69 68 70 59 52 43 34 30 35 34 31 26 28 36 35 37 53 46 37 34 36 34 27 21 26 40 49
55 73 116 210 229 251 269 244 140 151 186 109 131 143 213 21 75 102 112 115 113 104 71 67 71 58 47 37 32 25 19 25 27 25 26 27 40 48 43 38 31 32 36 27 18 10 9 27 42
104 110 170 190 203 245 243 144 148 160 198 217 161 150 235 275 148 113 100 95 82 79 68 48 57 56 41 28 21 19 19 16 14 23 26 22 33 38 24 6 16 26 24 17 13 5 351 15 36
117 110 139 193 196 230 278 66 133 159 214 174 144 164 217 223 143 94 73 61 50 45 43 38 44 45 37 24 16 13 15 15 15 22 26 23 24 30 21 6 1 10 13 5 0 353 350 356 27
87 90 195 207 198 218 148 74 342 357 113 31 203 204 245 131 116 97 68 38 24 19 15 18 27 35 39 32 18 15 12 11 13 21 24 19 16 24 24 6 355 354 356 354 349 346 349 6 19
86 162 212 209 189 190 214 195 253 38 14 304 320 340 41 115 131 140 159 189 265 295 308 355 358 6 34 30 22 19 17 14 12 17 22 21 17 19 23 7 3 355 357 345 341 341 351 13 18
108 178 203 246 267 177 215 261 243 160 242 228 222 221 160 133 155 178 203 209 227 245 276 292 314 337 18 20 17 16 16 16 12 14 14 16 21 20 23 28 8 1 4 7 355 352 357 17 28
106 263 200 284 354 30 256 247 261 205 232 239 213 189 183 184 205 206 213 228 243 257 268 276 283 299 322 355 350 3 12 16 7 356 354 21 19 5 17 28 13 13 6 8 13 5 354 358 360
112 276 320 342 357 318 286 252 244 251 258 269 217 170 195 208 224 228 224 227 237 248 263 264 260 248 256 287 310 345 353 343 320 334 324 326 343 298 346 9 13 4 351 0 10 8 356 337 344
251 329 308 309 302 310 268 278 240 262 265 248 207 211 217 222 230 243 240 241 238 244 256 257 246 244 254 247 256 281 296 299 303 295 286 283 285 269 300 329 350 351 342 340 337 328 323 302 310
37 7 336 306 282 284 6 296 242 253 231 250 245 239 243 244 244 245 239 237 237 241 252 255 243 243 255 264 251 272 271 275 286 280 281 281 279 271 267 274 301 326 324 350 15 4 4 324 331
40 36 316 296 294 316 127 270 271 279 206 254 259 257 255 256 251 254 251 241 242 238 248 255 256 240 245 249 248 252 255 254 266 273 276 273 268 261 246 266 290 310 325 22 46 298 339 331 330
34 319 268 292 277 49 195 260 279 300 228 255 265 265 262 268 269 264 257 243 239 231 234 248 246 236 243 246 251 250 245 241 260 269 272 270 261 246 219 260 290 305 343 333 278 352 4 305 320
241 246 260 263 275 238 246 260 280 279 242 252 265 267 265 263 264 264 260 248 240 237 230 235 249 242 238 230 341 299 284 267 263 261 269 270 259 245 217 251 288 303 277 283 256 244 341 274 294
201 219 259 262 267 260 252 268 278 273 259 260 266 266 267 265 267 264 257 245 240 250 246 242 252 228 187 175 214 273 282 279 273 273 265 261 260 251 223 258 263 261 246 256 241 204 138 9 1
229 252 265 285 284 259 274 276 273 254 247 244 249 256 262 274 289 286 273 254 239 240 245 242 241 228 209 210 212 231 249 264 261 275 274 266 258 247 237 236 247 245 238 260 235 197 168 266 346
240 230 244 268 315 304 306 292 273 267 260 259 253 255 260 260 267 280 270 259 263 257 249 249 242 232 219 208 169 48 32 349 328 318 298 297 283 266 249 243 242 241 219 230 238 215 188 217 301
253 236 233 256 292 289 342 287 279 271 284 270 269 270 267 271 267 274 268 264 257 257 256 249 237 227 221 188 185 188 224 252 254 265 272 295 286 275 262 255 248 241 230 231 239 229 216 198 229
237 269 223 228 214 285 244 245 285 295 279 274 266 264 268 267 261 273 269 260 263 260 254 250 247 238 226 202 205 207 241 254 274 279 283 288 295 285 271 260 252 246 240 234 233 233 224 210 210
213 33 63 60 88 272 229 205 278 245 241 272 277 280 281 276 275 278 283 290 296 293 280 259 244 249 230 219 220 218 231 250 265 275 268 276 285 287 276 263 251 250 243 235 232 229 228 226 221
86 81 15 346 328 253 212 213 251 248 240 245 267 282 287 283 279 287 299 304 306 311 301 271 236 252 242 229 233 235 235 234 239 249 249 258 268 274 267 270 258 256 250 241 233 232 235 232 225
201 156 167 226 247 284 274 238 254 258 264 270 273 285 305 307 294 293 292 290 291 292 291 278 252 258 250 242 248 248 240 238 248 248 247 246 252 257 262 259 256 256 252 248 236 237 245 241 236
157 191 169 150 244 275 268 277 296 267 329 331 331 347 332 317 312 308 309 310 301 288 275 262 255 267 263 256 252 254 250 247 253 256 249 249 254 260 252 252 253 253 241 237 231 238 246 244 244
161 154 119 150 217 270 284 265 246 267 291 322 339 324 314 314 311 312 313 311 300 286 281 278 261 255 259 257 253 262 257 252 250 250 249 252 254 252 250 256 256 256 242 230 227 239 242 243 252
157 159 159 165 181 195 275 273 227 212 231 272 289 290 291 297 298 303 312 313 308 314 309 299 288 281 275 266 262 263 261 255 249 247 249 249 253 252 243 244 248 252 241 231 230 238 241 245 262
189 185 165 179 229 204 226 270 263 200 232 272 300 308 303 295 294 304 315 323 330 325 321 314 304 287 274 265 262 262 263 261 258 257 259 254 251 249 243 242 243 250 238 226 227 237 242 242 257
Height
1493 1494 1495 1498 1502 1514 1517 1512 1509 1508 1507 1506 1506 1507 1508 1511 1514 1519 1515 1512 1513 1514 1515 1516 1516 1517 1517 1517 1517 1517 1516 1516 1516 1516 1516 1516 1516 1516 1516 1516 1516 1516 1516 1516 1516 1517 1517 1517 1517
1493 1494 1497 1498 1509 1519 1516 1509 1508 1506 1506 1506 1506 1507 1508 1510 1511 1512 1512 1512 1513 1514 1515 1515 1516 1516 1516 1516 1516 1516 1516 1515 1515 1515 1515 1515 1515 1515 1515 1515 1515 1515 1515 1515 1515 1515 1516 1516 1517
1493 1495 1497 1501 1512 1515 1509 1506 1505 1505 1506 1506 1506 1507 1508 1510 1510 1511 1512 1512 1513 1514 1515 1515 1515 1516 1515 1515 1515 1515 1515 1515 1514 1514 1514 1514 1514 1514 1514 1514 1514 1514 1514 1515 1515 1515 1515 1515 1516
1494 1496 1498 1506 1510 1509 1506 1504 1504 1505 1506 1506 1506 1508 1509 1510 1510 1511 1511 1512 1513 1514 1514 1515 1515 1515 1515 1514 1514 1514 1514 1514 1513 1513 1513 1513 1513 1513 1513 1513 1513 1513 1513 1513 1513 1514 1514 1514 1515
1494 1496 1504 1511 1509 1506 1504 1503 1503 1504 1505 1506 1506 1507 1508 1510 1509 1510 1511 1512 1512 1513 1513 1514 1514 1514 1514 1513 1513 1513 1513 1512 1512 1512 1512 1512 1512 1512 1512 1512 1512 1512 1512 1512 1512 1512 1513 1513 1513
1495 1497 1509 1512 1508 1505 1504 1503 1504 1505 1505 1505 1506 1507 1507 1509 1509 1509 1510 1511 1512 1512 1512 1512 1512 1513 1512 1512 1512 1511 1511 1511 1511 1510 1510 1510 1510 1510 1510 1510 1510 1510 1510 1510 1510 1511 1511 1511 1511
1496 1502 1507 1507 1508 1505 1504 1503 1503 1504 1505 1505 1506 1507 1507 1507 1508 1509 1509 1510 1511 1511 1511 1511 1511 1511 1511 1511 1511 1510 1510 1510 1509 1509 1509 1509 1509 1509 1509 1509 1508 1508 1508 1508 1509 1509 1509 1510 1510
1495 1501 1506 1508 1507 1505 1503 1502 1503 1503 1504 1505 1505 1506 1506 1506 1507 1507 1508 1509 1509 1509 1510 1509 1509 1509 1509 1509 1509 1509 1508 1508 1508 1507 1507 1507 1507 1507 1507 1507 1507 1506 1506 1506 1507 1507 1507 1508 1508
1496 1504 1507 1505 1505 1503 1502 1502 1503 1503 1503 1503 1504 1504 1505 1505 1505 1506 1507 1507 1507 1508 1508 1507 1507 1507 1507 1507 1507 1507 1507 1506 1506 1505 1505 1505 1505 1505 1505 1505 1504 1504 1504 1504 1504 1505 1505 1505 1506
1497 1505 1502 1501 1501 1501 1501 1502 1502 1502 1502 1502 1502 1502 1503 1503 1504 1504 1504 1504 1505 1505 1506 1506 1505 1505 1505 1505 1505 1505 1504 1504 1504 1503 1503 1503 1503 1502 1502 1502 1502 1502 1502 1502 1502 1502 1502 1503 1503
1497 1501 1500 1500 1500 1500 1501 1502 1502 1502 1502 1501 1500 1500 1501 1501 1502 1502 1502 1502 1503 1503 1503 1503 1503 1503 1502 1502 1502 1502 1502 1502 1501 1501 1501 1501 1500 1500 1499 1500 1500 1500 1500 1500 1500 1500 1500 1500 1501
1499 1500 1500 1500 1500 1500 1501 1501 1501 1500 1500 1499 1499 1499 1499 1499 1499 1500 1500 1500 1501 1501 1501 1501 1501 1500 1500 1500 1500 1500 1499 1499 1499 1498 1498 1498 1498 1497 1497 1496 1496 1497 1497 1497 1497 1497 1498 1497 1498
1500 1500 1500 1500 1500 1500 1500 1500 1500 1498 1498 1498 1497 1497 1497 1497 1498 1498 1499 1499 1499 1499 1499 1498 1498 1498 1497 1497 1497 1497 1496 1496 1496 1495 1495 1495 1495 1495 1494 1493 1493 1494 1494 1494 1494 1494 1495 1495 1495
1500 1500 1500 1499 1499 1499 1499 1498 1499 1494 1495 1495 1495 1494 1495 1495 1495 1496 1496 1496 1496 1496 1496 1496 1495 1495 1495 1494 1494 1494 1494 1493 1493 1493 1493 1492 1492 1492 1491 1491 1491 1491 1491 1491 1491 1492 1492 1492 1492
1500 1501 1500 1499 1498 1499 1499 1498 1495 1493 1494 1493 1492 1492 1492 1493 1493 1493 1493 1494 1494 1494 1494 1493 1493 1492 1492 1491 1491 1491 1490 1490 1490 1490 1490 1489 1489 1489 1488 1488 1487 1487 1488 1488 1488 1489 1489 1489 1489
1501 1503 1504 1499 1499 1498 1502 1500 1492 1492 1492 1491 1490 1490 1490 1490 1490 1490 1491 1491 1491 1491 1491 1490 1490 1489 1489 1488 1488 1488 1487 1487 1487 1487 1487 1486 1486 1486 1485 1485 1484 1484 1485 1485 1485 1485 1485 1486 1486
1506 1508 1505 1501 1498 1499 1501 1499 1492 1491 1490 1489 1488 1487 1487 1486 1487 1487 1487 1488 1488 1488 1487 1487 1486 1485 1485 1485 1485 1484 1484 1484 1484 1484 1484 1483 1483 1483 1482 1481 1481 1481 1482 1482 1482 1482 1482 1482 1482
1507 1507 1505 1503 1498 1499 1500 1496 1490 1489 1488 1487 1485 1484 1484 1483 1483 1484 1484 1485 1485 1485 1484 1483 1483 1482 1482 1482 1481 1481 1481 1481 1480 1480 1480 1480 1480 1479 1479 1479 1479 1479 1478 1478 1478 1479 1479 1479 1479
1502 1504 1504 1501 1498 1499 1497 1493 1488 1486 1485 1483 1482 1481 1480 1480 1480 1481 1481 1481 1481 1481 1481 1480 1479 1479 1478 1478 1477 1477 1477 1477 1477 1477 1477 1477 1477 1476 1476 1476 1476 1476 1476 1475 1475 1475 1475 1476 1476
1502 1503 1503 1500 1497 1497 1496 1491 1484 1482 1481 1479 1478 1477 1477 1477 1477 1477 1478 1478 1478 1477 1477 1477 1476 1475 1475 1475 1475 1474 1474 1473 1473 1474 1474 1474 1473 1473 1473 1473 1473 1472 1472 1472 1472 1472 1472 1473 1474
1500 1501 1501 1501 1498 1497 1497 1489 1482 1478 1477 1476 1475 1474 1474 1474 1474 1474 1474 1474 1474 1474 1473 1473 1473 1472 1472 1472 1472 1471 1470 1470 1470 1470 1470 1470 1470 1470 1471 1470 1470 1469 1469 1469 1470 1470 1469 1470 1471
1498 1497 1497 1499 1502 1502 1500 1497 1482 1478 1476 1473 1472 1472 1471 1472 1472 1471 1471 1471 1471 1471 1471 1470 1470 1469 1469 1469 1468 1468 1467 1466 1467 1467 1467 1467 1467 1467 1467 1467 1467 1466 1466 1466 1466 1467 1467 1468 1468
1496 1495 1496 1498 1501 1503 1501 1502 1483 1479 1476 1471 1469 1469 1468 1469 1469 1469 1469 1468 1468 1468 1468 1467 1467 1466 1466 1466 1466 1465 1464 1464 1464 1464 1464 1464 1464 1464 1464 1464 1463 1463 1463 1463 1463 1463 1464 1465 1465
1495 1496 1498 1502 1503 1503 1498 1500 1486 1479 1472 1469 1467 1466 1466 1466 1467 1467 1467 1466 1466 1465 1465 1464 1464 1463 1463 1463 1463 1462 1462 1461 1461 1461 1460 1461 1461 1461 1461 1460 1460 1460 1460 1460 1460 1460 1461 1461 1462
1496 1500 1506 1506 1508 1501 1496 1496 1483 1469 1467 1466 1465 1465 1464 1464 1464 1464 1464 1464 1463 1463 1462 1462 1461 1460 1460 1460 1459 1459 1458 1458 1458 1457 1457 1457 1457 1457 1457 1457 1456 1456 1456 1457 1457 1457 1457 1457 1458
1497 1497 1505 1505 1506 1501 1495 1491 1474 1466 1464 1464 1464 1464 1463 1462 1462 1462 1462 1461 1461 1460 1460 1459 1458 1458 1457 1456 1456 1456 1455 1455 1454 1454 1454 1454 1454 1453 1453 1453 1453 1453 1453 1453 1453 1453 1453 1454 1454
1496 1500 1499 1507 1508 1507 1495 1487 1473 1463 1463 1463 1462 1461 1460 1460 1460 1460 1459 1459 1458 1458 1457 1456 1455 1455 1454 1453 1453 1452 1452 1452 1451 1451 1451 1450 1450 1450 1450 1450 1449 1449 1449 1450 1450 1450 1449 1450 1450
1494 1497 1503 1505 1502 1499 1491 1486 1476 1465 1463 1462 1461 1460 1459 1458 1458 1458 1457 1456 1456 1455 1454 1453 1452 1451 1451 1450 1449 1449 1448 1448 1448 1448 1447 1447 1446 1446 1446 1446 1445 1446 1446 1446 1446 1446 1446 1446 1446
1495 1497 1498 1502 1501 1502 1498 1480 1465 1462 1462 1462 1460 1459 1458 1457 1456 1456 1455 1454 1453 1452 1451 1450 1449 1448 1447 1447 1446 1445 1445 1445 1445 1444 1443 1443 1442 1442 1442 1442 1442 1442 1442 1442 1442 1442 1442 1442 1441
1490 1492 1496 1498 1500 1503 1499 1481 1459 1460 1459 1459 1459 1458 1457 1456 1455 1454 1453 1452 1450 1449 1448 1447 1446 1444 1444 1443 1443 1442 1442 1441 1440 1440 1439 1439 1439 1438 1438 1438 1438 1438 1438 1438 1438 1438 1438 1438 1437